Location: Baix
(44.7118°N, 4.7648°E)
Time: 07:25:18
(UTC+00:00)

Vanguard 1 - Pass Details

Date: 03 December 2020
Orbit: 648 x 3834 km, 34.3° (Epoch: 21 January)

Event Time Altitude Azimuth Distance (km) Brightness Sun altitude
Rises 05:20:24 0° 249° (WSW) 3,329 - -17.2°
Reaches altitude 10° 05:22:36 10° 241° (WSW) 2,594 - -16.8°
Exits shadow 05:23:02 12° 238° (WSW) 2,464 11.7 -16.7°
Maximum altitude 05:28:16 39° 173° (S) 1,776 11.5 -15.8°
Drops below altitude 10° 05:37:45 10° 110° (ESE) 4,348 14.8 -14.2°
Sets 05:42:36 0° 104° (ESE) 5,904 16.1 -13.4°
